Content
SEND FEEDBACK

Daily
Averages
Monthly
Summary
Canada

PRINCE RUPERT, BRITISH COLUMBIA


Home > North America > Canada > British Columbia
Elevation: 111 feet     Latitude: 54 17N     Longitude: 130 27W

WEATHER
 
SELECT A DAY
Number of Records: 355,423;   Date Range: 1/1/95 - 10/20/14
 
SHARE

PRINT THIS DATA

[ ← Previous Day ]
WEATHER ALMANAC - AUGUST 25, 2013
[ Next Day → ]
[ °C ]   °F
Weather ElementAverageHighLow
Temperature57.3 °F60.8 °F (2:58 pm)55.4 °F (3:00 am)
Dewpoint53.7 °F57.2 °F (3:16 pm)51.8 °F (1:00 am)
Humidity87.9 %94 % (3:00 am)77 % (7:03 pm)
Barometer29.78 in29.81 in (2:00 pm)29.75 in (1:00 am)
Wind Speed7.6 mph15 mph (8:00 pm)
Wind Gust24.2 mph (8:00 pm)
Weather ElementAverage
Visibility8.7 mi
Wind DirectionSSE (148.2 °)

Weather ElementTotal
Precipitation---
Heating Degree Days6.9 (Base 65)
Growing Degree Days8.1 (Base 50)
Averaged from 73 records on August 25, 2013
WEATHER CONDITIONS BREAKOUT
WIND DIRECTION BREAKOUT
WEATHER BY HOUR - AUGUST 25, 2013
[ °C ]   °F
Local TimeTemperatureDewpointHumidityBarometerVisibilityWind DirectionWind SpeedGust SpeedPrecipitationEventsConditions
1:00 AM57.2 °F51.8 °F82 %29.75 in9.0 miSSE (150°)8.1 mphOvercast
1:59 AM57.2 °F51.8 °F82 %29.75 in9.0 miSE (140°)9.2 mphRainLight Rain
2:00 AM57.2 °F51.8 °F82 %29.75 in9.0 miSSE (150°)9.2 mphRainLight Rain
3:00 AM55.4 °F53.6 °F94 %29.76 in9.0 miSSE (150°)5.8 mphRainLight Rain
3:01 AM55.4 °F53.6 °F94 %29.76 in9.0 miSSE (150°)5.8 mphOvercast
3:03 AM55.4 °F53.6 °F94 %29.76 in9.0 miSSE (150°)6.9 mphRainLight Rain
3:14 AM55.4 °F53.6 °F94 %29.76 in9.0 miSSE (150°)6.9 mphOvercast
3:50 AM55.4 °F53.6 °F94 %29.76 in9.0 miSSE (150°)6.9 mphRainLight Rain
4:00 AM55.4 °F53.6 °F94 %29.76 in9.0 miSSE (150°)9.2 mphRainLight Rain
4:15 AM55.4 °F53.6 °F94 %29.76 in9.0 miSSE (150°)9.2 mphOvercast
5:00 AM55.4 °F53.6 °F94 %29.75 in9.0 miSSE (150°)6.9 mphRainLight Rain
5:13 AM55.4 °F53.6 °F94 %29.75 in9.0 miSE (130°)8.1 mphOvercast
5:45 AM55.4 °F53.6 °F94 %29.75 in9.0 miSE (140°)5.8 mphRainLight Rain
6:00 AM55.4 °F53.6 °F94 %29.76 in7.0 miSSE (150°)8.1 mphRainLight Rain
6:03 AM55.4 °F53.6 °F94 %29.76 in5.0 miSSE (150°)6.9 mphRainRain
6:10 AM55.4 °F53.6 °F94 %29.76 in6.0 miSSE (150°)8.1 mphRainLight Rain
6:51 AM55.4 °F53.6 °F94 %29.76 in5.0 miSE (130°)10.4 mphRainRain
7:00 AM55.4 °F53.6 °F94 %29.76 in4.0 miESE (120°)10.4 mphRainRain
7:20 AM55.4 °F53.6 °F94 %29.76 in6.0 miSE (130°)8.1 mphRainLight Rain
7:35 AM55.4 °F53.6 °F94 %29.76 in9.0 miSE (140°)5.8 mphOvercast
7:45 AM55.4 °F53.6 °F94 %29.76 in9.0 miSSE (150°)5.8 mphRainLight Rain
8:00 AM55.4 °F53.6 °F94 %29.77 in9.0 miSE (140°)6.9 mphRainLight Rain
8:01 AM55.4 °F53.6 °F94 %29.76 in9.0 miSE (140°)6.9 mphOvercast
8:05 AM55.4 °F53.6 °F94 %29.76 in9.0 miSE (140°)6.9 mphRainLight Rain
9:00 AM55.4 °F53.6 °F94 %29.78 in9.0 miSSE (150°)8.1 mphRainLight Rain
9:05 AM55.4 °F53.6 °F94 %29.78 in9.0 miSSE (150°)6.9 mphOvercast
10:00 AM57.2 °F53.6 °F88 %29.78 in9.0 miSE (140°)6.9 mphOvercast
10:26 AM57.2 °F53.6 °F88 %29.78 in9.0 miSSE (150°)8.1 mphRainLight Rain
10:40 AM57.2 °F53.6 °F88 %29.79 in9.0 miSSE (150°)9.2 mphOvercast
11:00 AM57.2 °F53.6 °F88 %29.79 in9.0 miSSE (150°)6.9 mphOvercast
12:00 PM57.2 °F53.6 °F88 %29.80 in9.0 miSSE (150°)10.4 mphOvercast
12:12 PM57.2 °F53.6 °F88 %29.80 in9.0 miSE (140°)9.2 mphRainLight Rain
12:22 PM59.0 °F53.6 °F82 %29.80 in9.0 miSE (140°)6.9 mphOvercast
12:40 PM57.2 °F53.6 °F88 %29.80 in9.0 miSSE (150°)8.1 mphRainLight Rain
1:00 PM59.0 °F53.6 °F82 %29.80 in9.0 miSE (140°)10.4 mphRainLight Rain
1:02 PM59.0 °F53.6 °F82 %29.80 in9.0 miSSE (150°)11.5 mphOvercast
1:19 PM57.2 °F53.6 °F88 %29.80 in9.0 miSSE (150°)12.7 mph21.9 mphRainLight Rain
2:00 PM57.2 °F55.4 °F94 %29.81 in9.0 miSE (130°)9.2 mph18.4 mphRainLight Rain
2:10 PM59.0 °F55.4 °F88 %29.81 in9.0 miSE (130°)8.1 mphOvercast
2:58 PM60.8 °F55.4 °F82 %29.80 in9.0 miSSE (160°)6.9 mphRainLight Rain
3:00 PM60.8 °F55.4 °F82 %29.80 in9.0 miSSE (160°)5.8 mphRainLight Rain
3:16 PM60.8 °F57.2 °F88 %29.80 in9.0 miSouth (170°)4.6 mphMostly Cloudy
3:20 PM60.8 °F55.4 °F82 %29.80 in9.0 miSouth (170°)5.8 mphRainLight Rain
3:36 PM60.8 °F55.4 °F82 %29.80 in9.0 miSSE (150°)5.8 mphMostly Cloudy
3:38 PM60.8 °F57.2 °F88 %29.80 in9.0 miSSE (150°)5.8 mphRainLight Rain
3:53 PM59.0 °F55.4 °F88 %29.79 in9.0 miSouth (180°)6.9 mphMostly Cloudy
4:00 PM59.0 °F53.6 °F82 %29.79 in9.0 miSouth (170°)5.8 mphMostly Cloudy
4:06 PM59.0 °F53.6 °F82 %29.79 in9.0 miSSE (150°)6.9 mphRainLight Rain
5:00 PM57.2 °F53.6 °F88 %29.79 in9.0 miSSE (150°)5.8 mphRainLight Rain
6:00 PM57.2 °F53.6 °F88 %29.78 in9.0 miSouth (190°)4.6 mphRainLight Rain
6:11 PM57.2 °F53.6 °F88 %29.78 in9.0 miSSE (150°)8.1 mphOvercast
6:27 PM57.2 °F53.6 °F88 %29.77 in9.0 miSSE (160°)5.8 mphRainLight Rain
6:41 PM57.2 °F53.6 °F88 %29.78 in9.0 miSSE (160°)6.9 mphOvercast
7:00 PM59.0 °F53.6 °F82 %29.77 in9.0 miSSE (150°)6.9 mphOvercast
7:03 PM59.0 °F51.8 °F77 %29.77 in9.0 miSSE (160°)9.2 mphRainLight Rain
7:18 PM59.0 °F51.8 °F77 %29.77 in9.0 miSSE (160°)8.1 mphOvercast
7:37 PM59.0 °F51.8 °F77 %29.78 in9.0 miSSE (150°)12.7 mph21.9 mphRainLight Rain
8:00 PM57.2 °F53.6 °F88 %29.78 in9.0 miSSE (150°)15.0 mph24.2 mphRainLight Rain
8:22 PM57.2 °F53.6 °F88 %29.78 in9.0 miSSE (160°)12.7 mph21.9 mphOvercast
8:35 PM57.2 °F53.6 °F88 %29.78 in9.0 miSE (140°)6.9 mphRainLight Rain
8:55 PM57.2 °F53.6 °F88 %29.78 in9.0 miSE (130°)5.8 mphOvercast
9:00 PM57.2 °F53.6 °F88 %29.78 in9.0 miSE (140°)5.8 mphOvercast
9:08 PM57.2 °F53.6 °F88 %29.79 in9.0 miSSE (150°)6.9 mphRainLight Rain
9:36 PM57.2 °F53.6 °F88 %29.79 in9.0 miSE (140°)9.2 mphOvercast
10:00 PM59.0 °F53.6 °F82 %29.79 in9.0 miSE (140°)8.1 mphOvercast
10:39 PM59.0 °F53.6 °F82 %29.79 in9.0 miSE (140°)5.8 mphRainLight Rain
10:52 PM59.0 °F51.8 °F77 %29.79 in9.0 miSSE (150°)5.8 mphOvercast
10:53 PM59.0 °F51.8 °F77 %29.79 in9.0 miSE (140°)5.8 mphRainLight Rain
11:00 PM59.0 °F53.6 °F82 %29.79 in9.0 miSE (140°)5.8 mphRainLight Rain
11:16 PM57.2 °F53.6 °F88 %29.80 in9.0 miSSE (150°)5.8 mphOvercast
11:20 PM57.2 °F53.6 °F88 %29.80 in9.0 miSE (140°)6.9 mphRainLight Rain
11:37 PM57.2 °F53.6 °F88 %29.80 in9.0 miSSE (150°)5.8 mphOvercast
11:38 PM57.2 °F53.6 °F88 %29.80 in9.0 miSSE (150°)4.6 mphRainLight Rain
Hourly data recorded from CYPR, located miles away from Prince Rupert, British Columbia







STORIES FROM OUR PARTNERS